LH1331 GMMN-EDDM

Flight info

Callsign LH1331
Flight time 2h 56m
Altitude 36000
Route TOLSI UG5 KORIS L27 MAR DCT ALCOL N871 TOPTU DCT TOU DCT GAI DCT MEN DCT NINUN DCT LATAM DCT ETREK DCT LTP DCT SOPLO DCT OMASI DCT KINNI DCT SOSAL DCT KORED DCT BERSU N871 DITON/N0455F370 DCT NUNRI T103 BETOS BETOS1B
Aircraft A21N/M-SDE2E3FGHIRWXY/LB1

Departure

Time 2026-05-07 17:51
Airport Mohammed V International Airport (GMMN)

Arrival

Time 2026-05-07 20:48
Airport Munich Airport (EDDM)
Time Latitude Longitude Altitude Speed Heading
2026-05-07 16:20 33.37169 -7.58187 659 ft 0 kts 64°
2026-05-07 17:18 33.37167 -7.58193 655 ft 1 kts 64°
2026-05-07 17:18 33.37156 -7.58220 657 ft 4 kts 67°
2026-05-07 17:19 33.37147 -7.58250 660 ft 4 kts 72°
2026-05-07 17:19 33.37140 -7.58281 659 ft 4 kts 80°
2026-05-07 17:19 33.37137 -7.58307 658 ft 1 kts 90°
2026-05-07 17:19 33.37137 -7.58312 658 ft 0 kts 90°
2026-05-07 17:22 33.37135 -7.58298 658 ft 5 kts 110°
2026-05-07 17:23 33.37087 -7.58271 657 ft 10 kts 160°
2026-05-07 17:23 33.37019 -7.58243 656 ft 11 kts 171°
2026-05-07 17:23 33.36945 -7.58251 656 ft 12 kts 220°
2026-05-07 17:23 33.36918 -7.58347 656 ft 13 kts 254°
2026-05-07 17:24 33.36888 -7.58450 659 ft 14 kts 220°
2026-05-07 17:24 33.36799 -7.58443 656 ft 14 kts 164°
2026-05-07 17:24 33.36699 -7.58408 657 ft 15 kts 163°
2026-05-07 17:24 33.36594 -7.58374 657 ft 16 kts 164°
2026-05-07 17:25 33.36484 -7.58333 658 ft 17 kts 162°
2026-05-07 17:25 33.36368 -7.58295 658 ft 18 kts 165°
2026-05-07 17:25 33.36247 -7.58255 658 ft 18 kts 164°
2026-05-07 17:25 33.36121 -7.58213 659 ft 19 kts 164°
2026-05-07 17:26 33.35991 -7.58169 660 ft 20 kts 164°
2026-05-07 17:26 33.35856 -7.58124 660 ft 20 kts 163°
2026-05-07 17:26 33.35759 -7.58088 660 ft 14 kts 166°
2026-05-07 17:26 33.35695 -7.58068 661 ft 7 kts 164°
2026-05-07 17:27 33.35660 -7.58056 661 ft 0 kts 163°
2026-05-07 17:28 33.35636 -7.58046 661 ft 7 kts 161°
2026-05-07 17:28 33.35568 -7.58030 661 ft 13 kts 164°
2026-05-07 17:29 33.35481 -7.57995 662 ft 14 kts 161°
2026-05-07 17:29 33.35449 -7.57984 662 ft 0 kts 165°
2026-05-07 17:35 33.35447 -7.57983 662 ft 1 kts 165°
2026-05-07 17:35 33.35434 -7.57979 662 ft 3 kts 163°
2026-05-07 17:35 33.35408 -7.57969 662 ft 5 kts 163°
2026-05-07 17:36 33.35380 -7.57960 662 ft 0 kts 164°
2026-05-07 17:41 33.35377 -7.57959 662 ft 2 kts 164°
2026-05-07 17:41 33.35355 -7.57950 662 ft 5 kts 163°
2026-05-07 17:41 33.35308 -7.57944 662 ft 8 kts 188°
2026-05-07 17:41 33.35261 -7.57988 662 ft 0 kts 249°
2026-05-07 17:43 33.35261 -7.57991 662 ft 1 kts 249°
2026-05-07 17:43 33.35252 -7.58013 662 ft 5 kts 249°
2026-05-07 17:43 33.35240 -7.58060 662 ft 5 kts 254°
2026-05-07 17:43 33.35239 -7.58063 662 ft 0 kts 254°
2026-05-07 17:48 33.35238 -7.58066 662 ft 2 kts 254°
2026-05-07 17:48 33.35232 -7.58092 662 ft 5 kts 254°
2026-05-07 17:49 33.35220 -7.58144 663 ft 8 kts 254°
2026-05-07 17:49 33.35201 -7.58223 664 ft 11 kts 254°
2026-05-07 17:49 33.35230 -7.58267 664 ft 0 kts 345°
2026-05-07 17:50 33.35425 -7.58332 662 ft 64 kts 345°
2026-05-07 17:51 33.36057 -7.58549 657 ft 123 kts 344°
2026-05-07 17:51 33.37022 -7.58870 675 ft 162 kts 345°
2026-05-07 17:51 33.38114 -7.59257 1160 ft 165 kts 345°
2026-05-07 17:51 33.39177 -7.59765 1850 ft 165 kts 332°
2026-05-07 17:52 33.39994 -7.60758 2406 ft 180 kts 303°
2026-05-07 17:52 33.40168 -7.62344 2793 ft 210 kts 268°
2026-05-07 17:52 33.40123 -7.64189 3246 ft 232 kts 277°
2026-05-07 17:52 33.40297 -7.66133 4012 ft 237 kts 280°
2026-05-07 17:53 33.40538 -7.68115 4583 ft 244 kts 279°
2026-05-07 17:53 33.40807 -7.70130 4816 ft 246 kts 279°
2026-05-07 17:53 33.41101 -7.72149 4882 ft 247 kts 284°
2026-05-07 17:53 33.41889 -7.73955 4894 ft 248 kts 312°
2026-05-07 17:54 33.43308 -7.75089 5108 ft 248 kts 342°
2026-05-07 17:54 33.45009 -7.75567 5938 ft 254 kts 348°
2026-05-07 17:54 33.46773 -7.75925 6730 ft 261 kts 348°
2026-05-07 17:54 33.48581 -7.76256 7530 ft 265 kts 349°
2026-05-07 17:55 33.50421 -7.76588 8349 ft 269 kts 349°
2026-05-07 17:55 33.52293 -7.76915 9141 ft 275 kts 349°
2026-05-07 17:55 33.54209 -7.77229 9905 ft 281 kts 349°
2026-05-07 17:55 33.56167 -7.77535 10611 ft 286 kts 349°
2026-05-07 17:56 33.58170 -7.77840 11084 ft 303 kts 349°
2026-05-07 17:56 33.60310 -7.78162 11644 ft 315 kts 349°
2026-05-07 17:56 33.62503 -7.78486 12408 ft 319 kts 349°
2026-05-07 17:56 33.64723 -7.78803 13210 ft 323 kts 349°
2026-05-07 17:57 33.66964 -7.79116 13974 ft 326 kts 349°
2026-05-07 17:57 33.68497 -7.79327 14403 ft 331 kts 349°
2026-05-07 17:57 33.71577 -7.79061 14878 ft 342 kts 15°
2026-05-07 17:57 33.73753 -7.77888 14976 ft 345 kts 27°
2026-05-07 17:58 33.75840 -7.76462 15005 ft 345 kts 29°
2026-05-07 17:58 33.77914 -7.74991 15013 ft 345 kts 29°
2026-05-07 17:58 33.79939 -7.73392 14897 ft 358 kts 35°
2026-05-07 17:58 33.82024 -7.71540 14914 ft 386 kts 36°
2026-05-07 17:59 33.84237 -7.69544 14980 ft 409 kts 36°
2026-05-07 17:59 33.86572 -7.67446 15056 ft 428 kts 36°
2026-05-07 17:59 33.89018 -7.65270 15078 ft 446 kts 36°
2026-05-07 17:59 33.91557 -7.63026 15081 ft 457 kts 36°
2026-05-07 18:00 33.94124 -7.60752 15073 ft 457 kts 36°
2026-05-07 18:00 33.96676 -7.58482 15092 ft 456 kts 36°
2026-05-07 18:00 33.99238 -7.56202 15542 ft 459 kts 36°
2026-05-07 18:00 34.01806 -7.53914 16075 ft 459 kts 36°
2026-05-07 18:01 34.04377 -7.51614 16520 ft 462 kts 36°
2026-05-07 18:01 34.06969 -7.49301 16944 ft 464 kts 35°
2026-05-07 18:01 34.09571 -7.46973 17351 ft 467 kts 35°
2026-05-07 18:01 34.12163 -7.44655 17720 ft 471 kts 35°
2026-05-07 18:02 34.17465 -7.39905 18451 ft 478 kts 35°
2026-05-07 18:02 34.20146 -7.37506 18816 ft 480 kts 35°
2026-05-07 18:02 34.22841 -7.35096 19165 ft 484 kts 35°
2026-05-07 18:03 34.25553 -7.32667 19516 ft 486 kts 35°
2026-05-07 18:03 34.28278 -7.30223 19888 ft 490 kts 35°
2026-05-07 18:03 34.31025 -7.27756 20276 ft 493 kts 35°
2026-05-07 18:03 34.33781 -7.25272 20652 ft 496 kts 35°
2026-05-07 18:04 34.36556 -7.22772 21050 ft 498 kts 35°
2026-05-07 18:04 34.39342 -7.20262 21433 ft 502 kts 34°
2026-05-07 18:04 34.42152 -7.17726 21861 ft 506 kts 34°
2026-05-07 18:04 34.44981 -7.15171 22282 ft 509 kts 34°
2026-05-07 18:05 34.47835 -7.12590 22687 ft 513 kts 34°
2026-05-07 18:05 34.50707 -7.09994 23061 ft 517 kts 34°
2026-05-07 18:05 34.53605 -7.07373 23456 ft 520 kts 34°
2026-05-07 18:05 34.56513 -7.04735 23782 ft 523 kts 34°
2026-05-07 18:06 34.59445 -7.02119 24146 ft 523 kts 32°
2026-05-07 18:06 34.62593 -6.99946 24549 ft 518 kts 23°
2026-05-07 18:06 34.65770 -6.98012 24943 ft 518 kts 23°
2026-05-07 18:06 34.69029 -6.96022 25364 ft 517 kts 23°
2026-05-07 18:07 34.72233 -6.94061 25798 ft 515 kts 23°
2026-05-07 18:07 34.75437 -6.92095 26217 ft 515 kts 23°
2026-05-07 18:07 34.78633 -6.90132 26642 ft 515 kts 23°
2026-05-07 18:07 34.81828 -6.88165 27119 ft 513 kts 23°
2026-05-07 18:08 34.85008 -6.86206 27581 ft 512 kts 23°
2026-05-07 18:08 34.88180 -6.84253 27990 ft 511 kts 23°
2026-05-07 18:08 34.91355 -6.82296 28517 ft 508 kts 23°
2026-05-07 18:08 34.94463 -6.80382 28995 ft 506 kts 23°
2026-05-07 18:09 34.97643 -6.78418 29434 ft 505 kts 23°
2026-05-07 18:09 35.00738 -6.76502 29879 ft 504 kts 22°
2026-05-07 18:09 35.03861 -6.74572 30271 ft 503 kts 22°
2026-05-07 18:09 35.06979 -6.72642 30667 ft 502 kts 22°
2026-05-07 18:10 35.10097 -6.70710 31033 ft 501 kts 22°
2026-05-07 18:10 35.13202 -6.68786 31387 ft 500 kts 22°
2026-05-07 18:10 35.16300 -6.66862 31745 ft 499 kts 22°
2026-05-07 18:10 35.19400 -6.64937 32109 ft 498 kts 22°
2026-05-07 18:11 35.22484 -6.63016 32452 ft 497 kts 22°
2026-05-07 18:11 35.24522 -6.61748 32674 ft 496 kts 22°
2026-05-07 18:11 35.28642 -6.59186 33112 ft 495 kts 21°
2026-05-07 18:11 35.31714 -6.57273 33428 ft 494 kts 21°
2026-05-07 18:12 35.34776 -6.55363 33725 ft 494 kts 21°
2026-05-07 18:12 35.37842 -6.53449 33987 ft 494 kts 21°
2026-05-07 18:12 35.40900 -6.51539 34223 ft 493 kts 21°
2026-05-07 18:12 35.43957 -6.49626 34454 ft 493 kts 21°
2026-05-07 18:13 35.47006 -6.47692 34684 ft 493 kts 22°
2026-05-07 18:13 35.50033 -6.45714 34900 ft 493 kts 22°
2026-05-07 18:13 35.53051 -6.43722 35150 ft 491 kts 22°
2026-05-07 18:13 35.56061 -6.41746 35368 ft 490 kts 21°
2026-05-07 18:14 35.59077 -6.39777 35585 ft 490 kts 21°
2026-05-07 18:14 35.62085 -6.37813 35758 ft 490 kts 21°
2026-05-07 18:14 35.65096 -6.35848 35924 ft 490 kts 21°
2026-05-07 18:15 35.71106 -6.31915 35944 ft 489 kts 21°
2026-05-07 18:15 35.77060 -6.28012 35925 ft 488 kts 21°
2026-05-07 18:16 35.83074 -6.24094 35929 ft 488 kts 21°
2026-05-07 18:16 35.89096 -6.20204 35925 ft 490 kts 21°
2026-05-07 18:17 35.94865 -6.15596 35934 ft 495 kts 28°
2026-05-07 18:17 35.99581 -6.11589 35934 ft 494 kts 28°
2026-05-07 18:18 36.06194 -6.06053 35934 ft 491 kts 28°
2026-05-07 18:18 36.10932 -6.02095 35960 ft 491 kts 27°
2026-05-07 18:19 36.16559 -5.97390 35948 ft 492 kts 28°
2026-05-07 18:19 36.22231 -5.92639 35946 ft 492 kts 28°
2026-05-07 18:20 36.27893 -5.87884 35942 ft 492 kts 28°
2026-05-07 18:20 36.33557 -5.83115 35973 ft 492 kts 28°
2026-05-07 18:21 36.39211 -5.78342 35964 ft 492 kts 28°
2026-05-07 18:21 36.44880 -5.73556 35937 ft 493 kts 28°
2026-05-07 18:22 36.50539 -5.68764 35926 ft 490 kts 27°
2026-05-07 18:22 36.56164 -5.63991 35924 ft 489 kts 27°
2026-05-07 18:23 36.61784 -5.59217 35964 ft 489 kts 27°
2026-05-07 18:23 36.67420 -5.54434 35963 ft 490 kts 28°
2026-05-07 18:24 36.73048 -5.49654 35950 ft 490 kts 28°
2026-05-07 18:24 36.78652 -5.44868 35932 ft 491 kts 28°
2026-05-07 18:25 36.84281 -5.40059 35942 ft 491 kts 28°
2026-05-07 18:25 36.89916 -5.35234 35927 ft 491 kts 28°
2026-05-07 18:26 36.95559 -5.30391 35906 ft 491 kts 27°
2026-05-07 18:26 37.01172 -5.25558 35913 ft 489 kts 27°
2026-05-07 18:27 37.06786 -5.20727 35917 ft 490 kts 27°
2026-05-07 18:27 37.12405 -5.15879 35923 ft 490 kts 27°
2026-05-07 18:28 37.18014 -5.11034 35924 ft 490 kts 27°
2026-05-07 18:28 37.23628 -5.06172 35909 ft 490 kts 28°
2026-05-07 18:29 37.29243 -5.01304 35915 ft 490 kts 28°
2026-05-07 18:29 37.34816 -4.96458 35900 ft 490 kts 28°
2026-05-07 18:30 37.40412 -4.91580 35933 ft 487 kts 27°
2026-05-07 18:30 37.45956 -4.86745 35907 ft 487 kts 27°
2026-05-07 18:31 37.51542 -4.81867 35901 ft 489 kts 27°
2026-05-07 18:31 37.57126 -4.76970 35884 ft 489 kts 27°
2026-05-07 18:32 37.62709 -4.72073 35901 ft 489 kts 27°
2026-05-07 18:32 37.68302 -4.67160 35916 ft 490 kts 27°
2026-05-07 18:33 37.73889 -4.62240 35886 ft 489 kts 27°
2026-05-07 18:33 37.79473 -4.57316 35884 ft 489 kts 27°
2026-05-07 18:34 37.85073 -4.52443 35866 ft 484 kts 23°
2026-05-07 18:34 37.91045 -4.48942 35880 ft 473 kts 14°
2026-05-07 18:35 37.97143 -4.45735 35854 ft 474 kts 14°
2026-05-07 18:35 38.03233 -4.42492 35863 ft 474 kts 14°
2026-05-07 18:36 38.09317 -4.39228 35866 ft 474 kts 14°
2026-05-07 18:36 38.15402 -4.35958 35882 ft 474 kts 14°
2026-05-07 18:37 38.21481 -4.32699 35877 ft 474 kts 14°
2026-05-07 18:37 38.27548 -4.29430 35884 ft 474 kts 14°
2026-05-07 18:38 38.33588 -4.26166 35875 ft 474 kts 14°
2026-05-07 18:38 38.39669 -4.22888 35876 ft 474 kts 14°
2026-05-07 18:39 38.45742 -4.19599 35871 ft 473 kts 14°
2026-05-07 18:39 38.51812 -4.16310 35873 ft 474 kts 14°
2026-05-07 18:40 38.57884 -4.13007 35870 ft 474 kts 14°
2026-05-07 18:40 38.63955 -4.09698 35883 ft 474 kts 14°
2026-05-07 18:41 38.70024 -4.06394 35877 ft 473 kts 14°
2026-05-07 18:41 38.76084 -4.03077 35878 ft 473 kts 14°
2026-05-07 18:42 38.82143 -3.99768 35876 ft 473 kts 14°
2026-05-07 18:42 38.88162 -3.96469 35887 ft 472 kts 14°
2026-05-07 18:43 38.94210 -3.93148 35884 ft 472 kts 14°
2026-05-07 18:43 39.00253 -3.89827 35883 ft 472 kts 14°
2026-05-07 18:44 39.06306 -3.86488 35915 ft 472 kts 14°
2026-05-07 18:44 39.12322 -3.83163 35893 ft 469 kts 14°
2026-05-07 18:45 39.18318 -3.79843 35902 ft 468 kts 14°
2026-05-07 18:45 39.24301 -3.76526 35901 ft 468 kts 14°
2026-05-07 18:46 39.30242 -3.73221 35934 ft 468 kts 14°
2026-05-07 18:46 39.36220 -3.69902 35910 ft 467 kts 14°
2026-05-07 18:47 39.42191 -3.66574 35900 ft 467 kts 14°
2026-05-07 18:47 39.48159 -3.63240 35924 ft 467 kts 14°
2026-05-07 18:48 39.54122 -3.59900 35939 ft 467 kts 15°
2026-05-07 18:48 39.60074 -3.56558 35926 ft 466 kts 15°
2026-05-07 18:49 39.66024 -3.53214 35915 ft 466 kts 15°
2026-05-07 18:49 39.71976 -3.49843 35923 ft 467 kts 15°
2026-05-07 18:50 39.77903 -3.46373 35931 ft 472 kts 20°
2026-05-07 18:50 39.83503 -3.41745 35927 ft 478 kts 25°
2026-05-07 18:51 39.89036 -3.36973 35920 ft 476 kts 25°
2026-05-07 18:51 39.94572 -3.32226 35929 ft 476 kts 25°
2026-05-07 18:52 40.00101 -3.27471 35960 ft 476 kts 25°
2026-05-07 18:52 40.05622 -3.22714 35935 ft 475 kts 25°
2026-05-07 18:53 40.11096 -3.17973 35926 ft 475 kts 25°
2026-05-07 18:53 40.16608 -3.13200 35928 ft 475 kts 25°
2026-05-07 18:54 40.22122 -3.08421 35938 ft 475 kts 25°
2026-05-07 18:54 40.27616 -3.03642 35928 ft 472 kts 26°
2026-05-07 18:55 40.33069 -2.98875 35916 ft 470 kts 26°
2026-05-07 18:55 40.38504 -2.94125 35925 ft 470 kts 26°
2026-05-07 18:56 40.43950 -2.89358 35951 ft 470 kts 25°
2026-05-07 18:56 40.49378 -2.84582 35943 ft 469 kts 26°
2026-05-07 18:57 40.54799 -2.79819 35943 ft 468 kts 26°
2026-05-07 18:57 40.60214 -2.75049 35938 ft 468 kts 26°
2026-05-07 18:58 40.65592 -2.70296 35934 ft 468 kts 26°
2026-05-07 18:58 40.71003 -2.65510 35956 ft 468 kts 26°
2026-05-07 18:59 40.76417 -2.60714 35946 ft 468 kts 26°
2026-05-07 18:59 40.81818 -2.55914 35950 ft 468 kts 26°
2026-05-07 19:00 40.87226 -2.51106 35951 ft 468 kts 26°
2026-05-07 19:00 40.92624 -2.46290 35959 ft 469 kts 27°
2026-05-07 19:01 40.98028 -2.41457 35959 ft 469 kts 27°
2026-05-07 19:01 41.03374 -2.36494 35956 ft 473 kts 32°
2026-05-07 19:02 41.08521 -2.31050 35956 ft 473 kts 32°
2026-05-07 19:02 41.13631 -2.25614 35974 ft 475 kts 33°
2026-05-07 19:03 41.18799 -2.20115 35965 ft 476 kts 33°
2026-05-07 19:03 41.23089 -2.15540 35965 ft 476 kts 33°
2026-05-07 19:04 41.28257 -2.10021 35969 ft 476 kts 33°
2026-05-07 19:04 41.33422 -2.04494 35991 ft 476 kts 34°
2026-05-07 19:05 41.38578 -1.98963 35973 ft 476 kts 34°
2026-05-07 19:05 41.43733 -1.93422 35968 ft 476 kts 34°
2026-05-07 19:06 41.48856 -1.87911 35964 ft 477 kts 34°
2026-05-07 19:06 41.56594 -1.79551 35978 ft 477 kts 35°
2026-05-07 19:07 41.61746 -1.73968 35986 ft 477 kts 35°
2026-05-07 19:07 41.66907 -1.68372 36000 ft 477 kts 35°
2026-05-07 19:08 41.72060 -1.62772 36000 ft 477 kts 35°
2026-05-07 19:08 41.77203 -1.57164 36014 ft 477 kts 35°
2026-05-07 19:09 41.82347 -1.51550 35978 ft 477 kts 36°
2026-05-07 19:09 41.87489 -1.45920 35980 ft 477 kts 36°
2026-05-07 19:10 41.92623 -1.40252 35981 ft 478 kts 37°
2026-05-07 19:10 41.97733 -1.34636 35984 ft 478 kts 36°
2026-05-07 19:11 42.02886 -1.28985 35977 ft 478 kts 37°
2026-05-07 19:11 42.08034 -1.23298 35977 ft 478 kts 37°
2026-05-07 19:12 42.13178 -1.17606 35983 ft 478 kts 37°
2026-05-07 19:12 42.18286 -1.11953 35971 ft 479 kts 37°
2026-05-07 19:13 42.23440 -1.06235 35980 ft 479 kts 38°
2026-05-07 19:13 42.28587 -1.00514 35959 ft 479 kts 38°
2026-05-07 19:14 42.33724 -0.94778 35982 ft 479 kts 38°
2026-05-07 19:14 42.38857 -0.89038 35986 ft 479 kts 38°
2026-05-07 19:15 42.43779 -0.82960 35980 ft 480 kts 49°
2026-05-07 19:15 42.47889 -0.75831 35991 ft 480 kts 52°
2026-05-07 19:16 42.51916 -0.68666 35986 ft 481 kts 52°
2026-05-07 19:16 42.55966 -0.61436 35986 ft 482 kts 52°
2026-05-07 19:17 42.60057 -0.54166 35996 ft 482 kts 52°
2026-05-07 19:17 42.64120 -0.47008 35994 ft 481 kts 52°
2026-05-07 19:18 42.68170 -0.39788 35995 ft 480 kts 52°
2026-05-07 19:18 42.72217 -0.32561 35997 ft 480 kts 52°
2026-05-07 19:19 42.76269 -0.25323 35993 ft 480 kts 52°
2026-05-07 19:19 42.80374 -0.18128 35987 ft 480 kts 50°
2026-05-07 19:20 42.84637 -0.11109 35983 ft 480 kts 50°
2026-05-07 19:20 42.88871 -0.04067 35976 ft 479 kts 50°
2026-05-07 19:21 42.93091 0.02963 35966 ft 479 kts 50°
2026-05-07 19:21 42.97297 0.10024 35978 ft 479 kts 51°
2026-05-07 19:22 43.01513 0.17080 35980 ft 480 kts 51°
2026-05-07 19:22 43.05725 0.24157 35971 ft 480 kts 51°
2026-05-07 19:23 43.09908 0.31206 35962 ft 480 kts 51°
2026-05-07 19:23 43.14116 0.38303 35940 ft 480 kts 51°
2026-05-07 19:24 43.18321 0.45425 35950 ft 481 kts 51°
2026-05-07 19:24 43.22518 0.52561 35942 ft 481 kts 51°
2026-05-07 19:25 43.26719 0.59702 35944 ft 480 kts 51°
2026-05-07 19:25 43.30911 0.66835 35941 ft 480 kts 51°
2026-05-07 19:26 43.35094 0.73979 35939 ft 480 kts 51°
2026-05-07 19:26 43.39265 0.81162 35937 ft 480 kts 51°
2026-05-07 19:27 43.43444 0.88316 35949 ft 480 kts 51°
2026-05-07 19:27 43.47619 0.95501 35945 ft 480 kts 51°
2026-05-07 19:28 43.51788 1.02691 35942 ft 480 kts 51°
2026-05-07 19:28 43.55949 1.09890 35947 ft 480 kts 52°
2026-05-07 19:29 43.60108 1.17114 35927 ft 481 kts 51°
2026-05-07 19:29 43.64239 1.24289 35935 ft 481 kts 51°
2026-05-07 19:30 43.68383 1.31550 35931 ft 481 kts 53°
2026-05-07 19:30 43.72368 1.38988 35935 ft 481 kts 54°
2026-05-07 19:31 43.76340 1.46447 35936 ft 481 kts 54°
2026-05-07 19:31 43.80280 1.53844 35928 ft 481 kts 54°
2026-05-07 19:32 43.84241 1.61301 35945 ft 480 kts 54°
2026-05-07 19:32 43.88196 1.68761 35956 ft 480 kts 54°
2026-05-07 19:33 43.92144 1.76226 35950 ft 480 kts 54°
2026-05-07 19:33 43.96063 1.83735 35959 ft 480 kts 55°
2026-05-07 19:34 43.99865 1.91351 35940 ft 480 kts 55°
2026-05-07 19:34 44.03668 1.98980 35963 ft 480 kts 56°
2026-05-07 19:35 44.07461 2.06614 35966 ft 479 kts 56°
2026-05-07 19:35 44.11241 2.14262 35965 ft 479 kts 56°
2026-05-07 19:36 44.15024 2.21908 35969 ft 479 kts 56°
2026-05-07 19:36 44.18803 2.29566 35964 ft 479 kts 56°
2026-05-07 19:37 44.22557 2.37202 35982 ft 480 kts 56°
2026-05-07 19:37 44.26331 2.44898 35983 ft 480 kts 56°
2026-05-07 19:38 44.30095 2.52596 36000 ft 480 kts 56°
2026-05-07 19:38 44.33848 2.60302 36015 ft 480 kts 56°
2026-05-07 19:39 44.37605 2.68032 35987 ft 480 kts 56°
2026-05-07 19:39 44.40722 2.74511 35993 ft 482 kts 56°
2026-05-07 19:40 44.45114 2.83596 35991 ft 482 kts 56°
2026-05-07 19:40 44.48847 2.91386 35986 ft 482 kts 56°
2026-05-07 19:41 44.52607 2.99161 35993 ft 482 kts 56°
2026-05-07 19:41 44.56339 3.06977 35983 ft 483 kts 56°
2026-05-07 19:42 44.60080 3.14813 35997 ft 483 kts 56°
2026-05-07 19:42 44.63484 3.22949 36001 ft 483 kts 61°
2026-05-07 19:43 44.66786 3.31099 36000 ft 483 kts 60°
2026-05-07 19:43 44.70097 3.39321 36002 ft 483 kts 61°
2026-05-07 19:44 44.73376 3.47573 36006 ft 483 kts 61°
2026-05-07 19:44 44.76637 3.55841 36008 ft 483 kts 61°
2026-05-07 19:45 44.79892 3.64110 36008 ft 483 kts 61°
2026-05-07 19:45 44.83161 3.72376 36009 ft 483 kts 61°
2026-05-07 19:46 44.86421 3.80654 36011 ft 483 kts 61°
2026-05-07 19:46 44.89675 3.88900 36014 ft 484 kts 61°
2026-05-07 19:47 44.92952 3.97206 36026 ft 485 kts 61°
2026-05-07 19:47 44.96194 4.05534 36017 ft 484 kts 61°
2026-05-07 19:48 44.99431 4.13863 36020 ft 484 kts 61°
2026-05-07 19:48 45.02674 4.22195 36010 ft 484 kts 61°
2026-05-07 19:49 45.05384 4.29140 36024 ft 485 kts 61°
2026-05-07 19:49 45.08625 4.37501 36026 ft 485 kts 61°
2026-05-07 19:50 45.11860 4.45895 36026 ft 485 kts 62°
2026-05-07 19:50 45.15075 4.54284 36025 ft 485 kts 61°
2026-05-07 19:51 45.18292 4.62683 36005 ft 484 kts 61°
2026-05-07 19:51 45.21519 4.71107 36017 ft 486 kts 62°
2026-05-07 19:52 45.24731 4.79546 36012 ft 486 kts 62°
2026-05-07 19:52 45.27919 4.87948 36011 ft 486 kts 62°
2026-05-07 19:53 45.31118 4.96409 36007 ft 485 kts 62°
2026-05-07 19:53 45.34299 5.04870 35993 ft 485 kts 62°
2026-05-07 19:54 45.37488 5.13337 35999 ft 486 kts 62°
2026-05-07 19:54 45.40672 5.21839 35995 ft 486 kts 62°
2026-05-07 19:55 45.43849 5.30339 35995 ft 486 kts 62°
2026-05-07 19:55 45.47019 5.38844 36000 ft 486 kts 62°
2026-05-07 19:56 45.50926 5.46548 36002 ft 483 kts 42°
2026-05-07 19:56 45.55935 5.52936 36019 ft 483 kts 39°
2026-05-07 19:57 45.60971 5.59306 36010 ft 483 kts 40°
2026-05-07 19:57 45.65970 5.65710 36004 ft 483 kts 40°
2026-05-07 19:58 45.70963 5.72119 35999 ft 482 kts 40°
2026-05-07 19:58 45.75961 5.78544 35999 ft 483 kts 40°
2026-05-07 19:59 45.80955 5.84972 36002 ft 482 kts 40°
2026-05-07 19:59 45.85915 5.91356 36003 ft 482 kts 40°
2026-05-07 20:00 45.90885 5.97840 36001 ft 483 kts 40°
2026-05-07 20:00 45.95869 6.04304 36001 ft 482 kts 40°
2026-05-07 20:01 46.00857 6.10764 36028 ft 482 kts 40°
2026-05-07 20:01 46.05830 6.17217 36022 ft 480 kts 40°
2026-05-07 20:02 46.10719 6.23784 36023 ft 481 kts 43°
2026-05-07 20:02 46.15487 6.30556 36025 ft 481 kts 43°
2026-05-07 20:03 46.20248 6.37366 36030 ft 481 kts 43°
2026-05-07 20:03 46.24976 6.44142 36024 ft 481 kts 43°
2026-05-07 20:04 46.29745 6.50955 36015 ft 482 kts 43°
2026-05-07 20:04 46.34505 6.57787 36010 ft 482 kts 43°
2026-05-07 20:05 46.39289 6.64585 36030 ft 482 kts 43°
2026-05-07 20:05 46.44042 6.71422 36022 ft 482 kts 43°
2026-05-07 20:06 46.48790 6.78283 36028 ft 482 kts 43°
2026-05-07 20:06 46.53545 6.85164 36024 ft 482 kts 43°
2026-05-07 20:07 46.58037 6.92419 36027 ft 484 kts 49°
2026-05-07 20:07 46.62268 7.00056 36035 ft 485 kts 49°
2026-05-07 20:08 46.66496 7.07697 36034 ft 485 kts 49°
2026-05-07 20:08 46.70700 7.15295 36036 ft 485 kts 49°
2026-05-07 20:09 46.74930 7.22960 36050 ft 485 kts 49°
2026-05-07 20:10 46.81271 7.34499 36026 ft 485 kts 49°
2026-05-07 20:10 46.85486 7.42201 36041 ft 486 kts 49°
2026-05-07 20:11 46.89693 7.49929 36042 ft 486 kts 49°
2026-05-07 20:11 46.93876 7.57628 36055 ft 486 kts 49°
2026-05-07 20:12 46.98079 7.65381 36043 ft 486 kts 49°
2026-05-07 20:12 47.02267 7.73140 36060 ft 485 kts 49°
2026-05-07 20:13 47.06459 7.80917 36048 ft 486 kts 49°
2026-05-07 20:13 47.10644 7.88702 36051 ft 486 kts 49°
2026-05-07 20:14 47.14649 7.96676 36045 ft 485 kts 56°
2026-05-07 20:14 47.18248 8.05091 36045 ft 486 kts 56°
2026-05-07 20:15 47.21807 8.13465 36041 ft 486 kts 56°
2026-05-07 20:15 47.25386 8.21895 36042 ft 485 kts 56°
2026-05-07 20:16 47.28953 8.30340 36042 ft 486 kts 57°
2026-05-07 20:16 47.31642 8.39485 36045 ft 489 kts 71°
2026-05-07 20:17 47.33714 8.49016 36061 ft 489 kts 71°
2026-05-07 20:17 47.35802 8.58557 36057 ft 488 kts 71°
2026-05-07 20:18 47.37889 8.68084 36065 ft 488 kts 71°
2026-05-07 20:18 47.39974 8.77634 36069 ft 488 kts 71°
2026-05-07 20:19 47.42054 8.87185 36089 ft 488 kts 71°
2026-05-07 20:19 47.44121 8.96741 36081 ft 488 kts 71°
2026-05-07 20:20 47.46179 9.06303 36075 ft 487 kts 71°
2026-05-07 20:20 47.48209 9.15778 36058 ft 486 kts 71°
2026-05-07 20:21 47.50245 9.25318 36052 ft 487 kts 72°
2026-05-07 20:21 47.52269 9.34886 36050 ft 488 kts 72°
2026-05-07 20:22 47.54295 9.44463 36062 ft 487 kts 72°
2026-05-07 20:22 47.56312 9.54047 36068 ft 488 kts 72°
2026-05-07 20:23 47.58206 9.63709 36060 ft 489 kts 79°
2026-05-07 20:23 47.58535 9.68724 36059 ft 489 kts 90°
2026-05-07 20:23 47.58415 9.73752 36066 ft 488 kts 95°
2026-05-07 20:24 47.57921 9.83772 36063 ft 487 kts 95°
2026-05-07 20:24 47.57495 9.93690 36071 ft 481 kts 94°
2026-05-07 20:25 47.57081 10.03556 35699 ft 480 kts 94°
2026-05-07 20:25 47.56868 10.08528 34707 ft 487 kts 94°
2026-05-07 20:25 47.56652 10.13554 33900 ft 491 kts 94°
2026-05-07 20:25 47.56434 10.18594 33135 ft 490 kts 94°
2026-05-07 20:26 47.56210 10.23630 32365 ft 490 kts 94°
2026-05-07 20:26 47.55989 10.28679 31576 ft 491 kts 94°
2026-05-07 20:26 47.55763 10.33716 30798 ft 491 kts 94°
2026-05-07 20:26 47.55533 10.38762 30024 ft 491 kts 93°
2026-05-07 20:27 47.55300 10.43808 29090 ft 490 kts 93°
2026-05-07 20:27 47.55110 10.48838 28200 ft 489 kts 90°
2026-05-07 20:27 47.55363 10.53833 27308 ft 487 kts 79°
2026-05-07 20:27 47.56258 10.58652 26373 ft 485 kts 68°
2026-05-07 20:28 47.57753 10.63102 25467 ft 482 kts 58°
2026-05-07 20:28 47.59474 10.67345 24647 ft 479 kts 57°
2026-05-07 20:28 47.61197 10.71542 23953 ft 474 kts 57°
2026-05-07 20:28 47.62885 10.75689 23245 ft 465 kts 58°
2026-05-07 20:29 47.64533 10.79769 22516 ft 457 kts 58°
2026-05-07 20:29 47.66145 10.83785 22080 ft 452 kts 58°
2026-05-07 20:29 47.67842 10.87701 21729 ft 450 kts 52°
2026-05-07 20:29 47.69899 10.91172 21347 ft 445 kts 41°
2026-05-07 20:30 47.72279 10.94082 20843 ft 442 kts 37°
2026-05-07 20:30 47.74675 10.96845 20264 ft 432 kts 36°
2026-05-07 20:30 47.77020 10.99566 19694 ft 423 kts 37°
2026-05-07 20:30 47.79274 11.02224 19145 ft 416 kts 37°
2026-05-07 20:31 47.81515 11.04892 18587 ft 409 kts 37°
2026-05-07 20:31 47.83719 11.07516 17931 ft 404 kts 37°
2026-05-07 20:31 47.85943 11.10159 17326 ft 419 kts 37°
2026-05-07 20:31 47.88230 11.12880 16774 ft 420 kts 37°
2026-05-07 20:32 47.90509 11.15594 16275 ft 418 kts 37°
2026-05-07 20:32 47.92764 11.18290 15769 ft 415 kts 37°
2026-05-07 20:32 47.95016 11.20972 15248 ft 412 kts 36°
2026-05-07 20:32 47.97258 11.23614 14772 ft 410 kts 36°
2026-05-07 20:33 47.99493 11.26258 14356 ft 408 kts 36°
2026-05-07 20:33 48.01711 11.28899 13963 ft 406 kts 36°
2026-05-07 20:33 48.03884 11.31496 13506 ft 402 kts 36°
2026-05-07 20:33 48.06015 11.34156 12903 ft 396 kts 42°
2026-05-07 20:34 48.07656 11.37439 12473 ft 408 kts 61°
2026-05-07 20:34 48.08703 11.41502 12304 ft 423 kts 72°
2026-05-07 20:34 48.09567 11.45695 12215 ft 422 kts 72°
2026-05-07 20:34 48.10448 11.49763 12119 ft 399 kts 71°
2026-05-07 20:35 48.11330 11.53593 11980 ft 380 kts 70°
2026-05-07 20:35 48.12195 11.57241 11817 ft 364 kts 69°
2026-05-07 20:35 48.13031 11.60728 11660 ft 349 kts 69°
2026-05-07 20:35 48.13838 11.64093 11501 ft 336 kts 69°
2026-05-07 20:36 48.14612 11.67326 11350 ft 324 kts 69°
2026-05-07 20:36 48.15359 11.70447 11100 ft 316 kts 69°
2026-05-07 20:36 48.16096 11.73541 10680 ft 315 kts 70°
2026-05-07 20:36 48.16584 11.75591 10401 ft 315 kts 70°
2026-05-07 20:37 48.17312 11.78664 10034 ft 312 kts 70°
2026-05-07 20:37 48.18078 11.81701 9606 ft 310 kts 64°
2026-05-07 20:37 48.19122 11.84493 9239 ft 306 kts 57°
2026-05-07 20:37 48.20227 11.87198 8860 ft 302 kts 57°
2026-05-07 20:38 48.21318 11.89869 8502 ft 299 kts 57°
2026-05-07 20:38 48.22392 11.92521 8155 ft 296 kts 57°
2026-05-07 20:38 48.23447 11.95140 7832 ft 291 kts 58°
2026-05-07 20:38 48.24491 11.97743 7518 ft 291 kts 58°
2026-05-07 20:39 48.25537 12.00349 7190 ft 291 kts 58°
2026-05-07 20:39 48.26574 12.02946 6857 ft 288 kts 58°
2026-05-07 20:39 48.27598 12.05516 6528 ft 285 kts 58°
2026-05-07 20:39 48.28607 12.08051 6185 ft 282 kts 58°
2026-05-07 20:40 48.29607 12.10564 5854 ft 279 kts 58°
2026-05-07 20:40 48.30602 12.13064 5531 ft 280 kts 58°
2026-05-07 20:40 48.31606 12.15571 5218 ft 279 kts 57°
2026-05-07 20:40 48.32917 12.17625 5002 ft 268 kts 31°
2026-05-07 20:41 48.34585 12.18617 4957 ft 250 kts
2026-05-07 20:41 48.36248 12.18573 4953 ft 231 kts 346°
2026-05-07 20:41 48.37718 12.17687 4965 ft 227 kts 326°
2026-05-07 20:41 48.38832 12.16060 4969 ft 224 kts 297°
2026-05-07 20:42 48.39249 12.13882 4980 ft 215 kts 266°
2026-05-07 20:42 48.38780 12.11871 4975 ft 192 kts 237°
2026-05-07 20:42 48.38029 12.10370 5003 ft 169 kts 234°
2026-05-07 20:42 48.37442 12.08967 4973 ft 156 kts 243°
2026-05-07 20:43 48.37020 12.07475 4955 ft 155 kts 251°
2026-05-07 20:43 48.36716 12.05922 4838 ft 155 kts 256°
2026-05-07 20:43 48.36489 12.04336 4656 ft 155 kts 259°
2026-05-07 20:43 48.36310 12.02754 4473 ft 146 kts 261°
2026-05-07 20:44 48.36171 12.01300 4289 ft 138 kts 262°
2026-05-07 20:44 48.36046 11.99872 4093 ft 137 kts 262°
2026-05-07 20:44 48.35926 11.98448 3898 ft 137 kts 263°
2026-05-07 20:44 48.35774 11.97031 3712 ft 137 kts 262°
2026-05-07 20:45 48.35654 11.95609 3525 ft 137 kts 263°
2026-05-07 20:45 48.35541 11.94185 3343 ft 137 kts 263°
2026-05-07 20:45 48.35431 11.92761 3154 ft 137 kts 264°
2026-05-07 20:45 48.35322 11.91334 2964 ft 137 kts 264°
2026-05-07 20:46 48.35212 11.89894 2778 ft 139 kts 264°
2026-05-07 20:46 48.35102 11.88451 2588 ft 139 kts 265°
2026-05-07 20:46 48.34989 11.87007 2395 ft 139 kts 264°
2026-05-07 20:46 48.34865 11.85571 2168 ft 138 kts 264°
2026-05-07 20:47 48.34766 11.84135 1993 ft 138 kts 265°
2026-05-07 20:47 48.34658 11.82711 1800 ft 137 kts 263°
2026-05-07 20:47 48.34542 11.81292 1636 ft 137 kts 264°
2026-05-07 20:47 48.34432 11.79885 1473 ft 129 kts 264°
2026-05-07 20:48 48.34342 11.78741 1471 ft 86 kts 263°
2026-05-07 20:48 48.34300 11.78121 1478 ft 22 kts 281°
2026-05-07 20:48 48.34331 11.77913 1471 ft 27 kts 289°
2026-05-07 20:48 48.34410 11.77651 1467 ft 28 kts 297°
2026-05-07 20:49 48.34498 11.77486 1472 ft 16 kts 19°
2026-05-07 20:49 48.34536 11.77646 1472 ft 18 kts 85°
2026-05-07 20:49 48.34547 11.77846 1469 ft 20 kts 85°
2026-05-07 20:49 48.34562 11.78067 1469 ft 22 kts 83°
2026-05-07 20:50 48.34581 11.78305 1464 ft 24 kts 83°
2026-05-07 20:50 48.34602 11.78563 1472 ft 26 kts 81°
2026-05-07 20:50 48.34631 11.78838 1469 ft 27 kts 83°
2026-05-07 20:50 48.34654 11.79131 1469 ft 29 kts 84°
2026-05-07 20:51 48.34672 11.79443 1472 ft 31 kts 84°
2026-05-07 20:51 48.34713 11.79568 1465 ft 6 kts 351°
2026-05-07 20:51 48.34764 11.79557 1470 ft 9 kts
2026-05-07 20:51 48.34834 11.79563 1469 ft 12 kts 356°
2026-05-07 20:52 48.34924 11.79546 1469 ft 14 kts 353°
2026-05-07 20:52 48.35030 11.79526 1467 ft 16 kts 353°
2026-05-07 20:52 48.35150 11.79503 1470 ft 18 kts 353°
2026-05-07 20:52 48.35284 11.79478 1464 ft 20 kts 353°
2026-05-07 20:53 48.35431 11.79454 1472 ft 22 kts 354°
2026-05-07 20:53 48.35592 11.79432 1469 ft 24 kts 354°
2026-05-07 20:53 48.35680 11.79420 1472 ft 8 kts 358°
2026-05-07 20:53 48.35651 11.79431 1472 ft 11 kts 205°
2026-05-07 20:54 48.35582 11.79409 1464 ft 1 kts 268°
2026-05-07 20:54 48.35582 11.79406 1463 ft 1 kts 280°
2026-05-07 20:54 48.35590 11.79375 1464 ft 5 kts 290°
2026-05-07 20:54 48.35590 11.79348 1462 ft 0 kts 265°
2026-05-07 20:55 48.35590 11.79343 1463 ft 6 kts 265°
2026-05-07 20:55 48.35587 11.79293 1463 ft 0 kts 264°
2026-05-07 20:55 48.35587 11.79288 1462 ft 0 kts 264°
2026-05-07 20:56 48.35586 11.79281 1462 ft 0 kts 263°
2026-05-07 20:56 48.35586 11.79286 1462 ft 1 kts 261°
2026-05-07 20:56 48.35582 11.79244 1488 ft 0 kts 261°
2026-05-07 20:56 48.35583 11.79253 1450 ft 2 kts 259°
2026-05-07 20:57 48.35585 11.79272 1464 ft 1 kts 262°
2026-05-07 20:57 48.35585 11.79277 1463 ft 1 kts 264°
2026-05-07 20:57 48.35585 11.79269 1464 ft 0 kts 263°
2026-05-07 20:57 48.35586 11.79280 1463 ft 2 kts 263°
2026-05-07 20:58 48.35586 11.79283 1462 ft 0 kts 263°